EW1898 Weather Reports


time (UTC)temp
F
wind
direction
speed
knots
gust
knots
rain 1hr
in
rain 24hr
in
rain mn
in
humidity
%
barometer
mb
20260902194555 70 123 0.9 6.1 0.00 0.04 0.00 69 1020.9
20260902193054 70 229 0.0 1.7 0.00 0.04 0.00 73 1021.0
20260902191554 70 240 0.0 2.6 0.00 0.04 0.00 73 1021.2
20260902190053 70 89 0.0 3.5 0.00 0.04 0.00 71 1021.2
20260902184553 70 99 0.0 3.5 0.00 0.10 0.00 68 1021.2
20260902183051 70 146 0.0 4.3 0.00 0.10 0.00 71 1021.3
20260902181550 70 152 0.0 4.3 0.00 0.10 0.00 72 1021.0
20260902180048 70 139 0.0 3.5 0.00 0.10 0.00 73 1021.1
20260902174552 70 142 0.9 3.5 0.00 0.11 0.00 75 1021.2
20260902173048 70 106 0.0 1.7 0.00 0.11 0.00 75 1021.2
20260902171548 70 26 0.0 1.7 0.00 0.11 0.00 75 1021.3
20260902170046 70 141 0.0 4.3 0.00 0.11 0.00 74 1021.5
20260902164547 69 88 0.0 2.6 0.00 0.11 0.00 78 1021.3
20260902163042 69 110 0.0 0.9 0.00 0.11 0.00 80 1021.7
20260902161541 69 122 0.0 3.5 0.00 0.11 0.00 81 1021.7
20260902160038 69 101 0.0 1.7 0.00 0.11 0.00 85 1022.0
20260902154536 68 140 0.0 2.6 0.00 0.11 0.00 87 1022.1
20260902153035 68 100 0.0 4.3 0.00 0.11 0.00 87 1022.2
20260902151533 68 136 0.0 2.6 0.00 0.11 0.00 89 1022.4
20260902150031 67 141 0.0 0.9 0.00 0.11 0.00 91 1022.5
20260902144532 67 134 0.0 2.6 0.00 0.11 0.00 92 1022.5
20260902143026 66 137 0.0 1.7 0.00 0.11 0.00 94 1022.2
20260902141531 65 166 0.0 3.5 0.00 0.11 0.00 94 1022.2
20260902140019 64 134 0.0 2.6 0.00 0.11 0.00 97 1021.7
20260902134518 64 121 0.0 0.9 0.00 0.13 0.00 98 1021.6
20260902133021 63 108 0.0 3.5 0.00 0.13 0.00 98 1021.6
20260902131512 63 167 0.0 3.5 0.00 0.13 0.00 99 1021.5
20260902130022 62 154 0.0 1.7 0.00 0.13 0.00 99 1021.9
20260902124511 62 162 0.0 0.9 0.00 0.27 0.00 99 1021.8
20260902123008 62 137 0.0 0.9 0.00 0.27 0.00 99 1021.9
20260902121506 61 161 0.0 0.0 0.00 0.27 0.00 99 1022.0
20260902120005 61 162 0.0 0.0 0.00 0.27 0.00 99 1022.1
20260902114507 61 162 0.0 0.0 0.00 0.27 0.00 99 1022.1
20260902113003 61 162 0.0 0.0 0.00 0.27 0.00 99 1022.2
20260902111501 61 162 0.0 0.0 0.00 0.27 0.00 99 1021.9
20260902110101 61 162 0.0 0.0 0.00 0.27 0.00 99 1021.8
20260902104610 61 162 0.0 0.0 0.00 0.27 0.00 99 1021.5
20260902103103 61 162 0.0 0.0 0.00 0.27 0.00 99 1021.3
20260902101555 60 162 0.0 0.0 0.00 0.27 0.00 99 1021.3
20260902100054 60 161 0.0 0.0 0.00 0.27 0.00 99 1021.2
20260902094551 61 161 0.0 0.0 0.00 0.27 0.00 99 1021.0
20260902093049 61 160 0.0 0.0 0.00 0.27 0.00 99 1020.9
20260902091555 61 161 0.0 0.0 0.00 0.27 0.00 99 1020.7
20260902090048 61 156 0.0 0.0 0.00 0.27 0.00 99 1020.6
20260902084547 61 156 0.0 0.0 0.00 0.27 0.00 99 1020.5
20260902083109 61 156 0.0 1.7 0.00 0.27 0.00 99 1020.3
20260902081546 61 159 0.0 0.0 0.00 0.27 0.00 99 1020.6
20260902080045 61 208 0.0 0.0 0.00 0.27 0.00 99 1020.7
20260902074544 61 157 0.0 0.0 0.00 0.27 0.00 99 1020.8
20260902073043 61 158 0.0 0.0 0.00 0.27 0.00 99 1020.8
20260902071542 61 157 0.0 0.0 0.00 0.27 0.00 99 1020.8
20260902070043 61 159 0.0 0.0 0.00 0.27 0.00 99 1020.5
20260902064544 61 160 0.0 0.0 0.00 0.27 0.00 99 1020.4
20260902063042 61 160 0.0 0.0 0.00 0.27 0.00 99 1020.4
20260902061547 61 160 0.0 0.0 0.00 0.27 0.00 99 1020.7
20260902060037 61 160 0.0 0.0 0.00 0.27 0.00 99 1020.7
20260902054539 61 160 0.0 0.0 0.00 0.27 0.00 99 1020.5
20260902053036 61 160 0.0 0.0 0.00 0.27 0.00 99 1020.5
20260902051535 61 160 0.0 0.0 0.00 0.27 0.00 99 1020.2
20260902050032 61 160 0.0 0.0 0.00 0.27 0.00 99 1020.1
20260902044531 61 160 0.0 0.0 0.00 0.27 0.00 99 1020.0
20260902043039 61 160 0.0 0.0 0.00 0.27 0.00 99 1019.7
20260902041526 60 160 0.0 0.0 0.00 0.27 0.00 99 1019.7
20260902040024 60 160 0.0 0.0 0.00 0.27 0.00 99 1019.3
20260902034522 61 160 0.0 0.0 0.00 0.27 0.27 99 1019.1
20260902033021 61 160 0.0 0.0 0.00 0.27 0.27 99 1018.9
20260902031533 61 160 0.0 0.0 0.00 0.27 0.27 99 1019.0
20260902030019 61 160 0.0 0.0 0.00 0.27 0.27 99 1019.0
20260902024518 61 160 0.0 0.0 0.00 0.27 0.27 99 1019.0
20260902023029 61 160 0.0 0.0 0.00 0.27 0.27 99 1019.4
20260902021516 61 160 0.0 0.0 0.00 0.27 0.27 99 1019.3
20260902020023 61 158 0.0 0.0 0.00 0.27 0.27 99 1019.3
20260902014520 62 158 0.0 0.0 0.00 0.27 0.27 98 1019.3
20260902013014 62 158 0.0 0.0 0.00 0.27 0.27 99 1019.1
20260902011515 62 158 0.0 0.0 0.00 0.27 0.27 98 1019.1
20260902010013 62 158 0.0 0.0 0.00 0.27 0.27 98 1019.2
20260902004508 62 158 0.0 0.0 0.00 0.27 0.27 98 1018.8
20260902003009 62 158 0.0 0.0 0.00 0.27 0.27 98 1018.8
20260902001507 62 158 0.0 0.0 0.00 0.27 0.27 98 1018.6
20260902000007 62 158 0.0 0.0 0.00 0.27 0.27 98 1018.5
20260901234505 62 158 0.0 0.0 0.00 0.27 0.27 98 1018.5
20260901233010 62 158 0.0 0.0 0.00 0.27 0.27 98 1018.6
20260901231509 62 158 0.0 0.0 0.00 0.27 0.27 98 1018.6
20260901230004 62 158 0.0 0.0 0.00 0.27 0.27 98 1018.3
20260901224502 62 158 0.0 0.0 0.00 0.27 0.27 98 1018.4
20260901223002 62 158 0.0 0.0 0.00 0.27 0.27 98 1018.4
20260901221624 62 158 0.0 0.0 0.00 0.27 0.27 98 1018.4
20260901220118 63 158 0.0 0.0 0.01 0.27 0.27 98 1018.4
20260901214556 63 158 0.0 0.0 0.01 0.27 0.27 98 1018.1
20260901213107 63 158 0.0 0.0 0.01 0.27 0.27 98 1018.0
20260901211555 63 158 0.0 0.0 0.01 0.27 0.27 98 1018.1
20260901210053 63 158 0.0 0.9 0.00 0.26 0.26 98 1017.8
20260901204608 64 158 0.0 0.9 0.01 0.26 0.26 98 1017.7
20260901203059 64 88 0.0 0.9 0.01 0.26 0.26 98 1017.5
20260901201556 64 165 0.0 0.9 0.02 0.26 0.26 98 1017.4
20260901200114 64 151 0.0 1.7 0.03 0.26 0.26 98 1017.4